EW0130 Weather Reports


Display with metric or nautical units.
time (UTC)temp
F
wind
direction
speed
MPH
gust
MPH
rain 1hr
in
rain 24hr
in
rain mn
in
humidity
%
barometer
mb
20181217180114 37 306 10.0 31.0 0.00 0.06 0.00 79 1010.8
20181217175114 38 301 21.0 30.0 0.00 0.06 0.00 78 1010.7
20181217174114 37 288 15.0 32.0 0.00 0.06 0.00 78 1010.8
20181217173113 37 290 20.0 30.0 0.00 0.06 0.00 79 1011.0
20181217172113 37 293 20.0 29.0 0.00 0.06 0.00 80 1011.2
20181217171113 37 314 22.0 34.0 0.00 0.06 0.00 82 1011.0
20181217170113 37 246 16.0 32.0 0.00 0.06 0.00 82 1011.0
20181217165112 36 319 14.0 37.0 0.00 0.06 0.00 84 1011.1
20181217164112 36 324 15.0 31.0 0.00 0.06 0.00 84 1010.9
20181217163112 37 303 17.0 32.0 0.00 0.06 0.00 85 1010.9
20181217162112 37 333 17.0 32.0 0.00 0.06 0.00 84 1011.0
20181217161111 37 314 20.0 29.0 0.00 0.06 0.00 86 1011.1
20181217160111 37 304 17.0 29.0 0.00 0.06 0.00 88 1011.1
20181217155110 37 307 20.0 29.0 0.00 0.06 0.00 89 1011.4
20181217154110 36 296 19.0 28.0 0.00 0.06 0.00 90 1011.3
20181217153110 36 346 13.0 29.0 0.00 0.06 0.00 90 1011.2
20181217152110 36 324 19.0 30.0 0.00 0.06 0.00 91 1011.5
20181217151109 36 304 20.0 30.0 0.00 0.06 0.00 91 1011.5
20181217150109 36 323 24.0 31.0 0.00 0.06 0.00 92 1011.8
20181217145109 36 300 17.0 32.0 0.00 0.06 0.00 92 1011.5
20181217144109 36 25 10.0 28.0 0.00 0.06 0.00 92 1011.4
20181217143108 36 299 12.0 29.0 0.00 0.06 0.00 92 1011.3
20181217142108 36 316 18.0 27.0 0.00 0.06 0.00 92 1010.9
20181217141108 36 318 11.0 31.0 0.00 0.06 0.00 92 1011.1
20181217140107 36 334 12.0 24.0 0.00 0.06 0.00 93 1011.1
20181217135107 36 340 15.0 27.0 0.00 0.06 0.00 93 1011.2
20181217134107 36 299 17.0 27.0 0.00 0.06 0.00 93 1011.2
20181217133107 35 250 18.0 28.0 0.00 0.06 0.00 94 1011.3
20181217132107 35 305 11.0 31.0 0.00 0.07 0.00 93 1011.4
20181217131106 35 306 12.0 26.0 0.00 0.07 0.00 93 1011.3
20181217130106 35 333 12.0 27.0 0.00 0.07 0.00 94 1011.2
20181217125105 35 302 12.0 26.0 0.00 0.07 0.00 94 1011.1
20181217124105 35 319 12.0 23.0 0.00 0.08 0.00 94 1010.9
20181217123105 35 345 13.0 26.0 0.00 0.09 0.00 94 1011.2
20181217122105 35 302 12.0 20.0 0.00 0.10 0.00 94 1011.0
20181217121104 35 302 9.0 19.0 0.00 0.11 0.00 94 1011.1
20181217120104 35 298 10.0 23.0 0.00 0.12 0.00 94 1011.4
20181217115104 35 254 9.0 20.0 0.00 0.12 0.00 94 1011.1
20181217114105 35 293 12.0 21.0 0.00 0.12 0.00 94 1011.4
20181217113107 35 303 17.0 23.0 0.00 0.12 0.00 94 1011.4
20181217112103 34 302 16.0 24.0 0.00 0.13 0.00 94 1011.5
20181217111102 35 326 6.0 23.0 0.00 0.13 0.00 94 1011.7
20181217110102 34 301 16.0 25.0 0.00 0.13 0.00 94 1011.8
20181217105102 34 319 11.0 23.0 0.00 0.14 0.00 94 1011.7
20181217104102 34 284 22.0 23.0 0.00 0.15 0.00 94 1011.7
20181217103101 34 321 13.0 21.0 0.00 0.15 0.00 95 1011.4
20181217102101 34 298 16.0 27.0 0.00 0.16 0.00 95 1011.5
20181217101101 34 304 12.0 19.0 0.00 0.16 0.00 95 1011.5
20181217100101 34 281 10.0 23.0 0.00 0.16 0.00 95 1011.4
20181217095100 34 304 18.0 22.0 0.00 0.16 0.00 94 1011.4
20181217094100 34 300 10.0 20.0 0.00 0.16 0.00 95 1011.2
20181217093100 34 303 8.0 18.0 0.00 0.16 0.00 95 1011.2
20181217092100 34 310 13.0 20.0 0.00 0.16 0.00 95 1011.1
20181217091059 34 324 11.0 17.0 0.00 0.16 0.00 95 1011.3
20181217090059 34 340 7.0 16.0 0.00 0.16 0.00 95 1011.3
20181217085059 34 293 5.0 15.0 0.00 0.16 0.00 95 1011.4
20181217084058 34 300 5.0 19.0 0.00 0.16 0.00 95 1011.6
20181217083058 34 350 9.0 18.0 0.00 0.17 0.00 94 1011.6
20181217082058 34 315 12.0 18.0 0.00 0.17 0.00 94 1011.6
20181217081057 35 299 18.0 20.0 0.00 0.17 0.00 94 1011.8
20181217080057 35 249 7.0 20.0 0.00 0.17 0.00 94 1012.0
20181217075057 36 310 7.0 20.0 0.00 0.17 0.00 94 1012.1
20181217074057 36 322 7.0 17.0 0.00 0.17 0.00 95 1012.0
20181217073056 36 301 3.0 17.0 0.00 0.17 0.00 94 1012.1
20181217072056 37 280 4.0 19.0 0.00 0.17 0.00 94 1012.2
20181217071056 37 327 18.0 19.0 0.00 0.17 0.00 94 1012.2
20181217070055 37 296 14.0 20.0 0.00 0.17 0.00 94 1012.4
20181217065055 37 300 5.0 19.0 0.00 0.17 0.00 94 1012.2
20181217064055 37 309 14.0 22.0 0.00 0.17 0.00 95 1012.1
20181217063055 37 315 4.0 21.0 0.00 0.17 0.00 95 1012.1
20181217062054 37 313 21.0 22.0 0.00 0.17 0.00 96 1012.1
20181217061054 37 313 13.0 21.0 0.00 0.17 0.00 96 1012.1
20181217060054 37 318 16.0 19.0 0.00 0.18 0.00 96 1012.1
20181217055054 37 304 10.0 22.0 0.00 0.18 0.00 97 1012.2
20181217054053 37 282 15.0 22.0 0.00 0.18 0.00 97 1012.2
20181217053053 37 309 5.0 21.0 0.00 0.18 0.00 98 1012.4
20181217052052 37 266 8.0 21.0 0.00 0.19 0.00 98 1012.4
20181217051052 37 302 9.0 22.0 0.00 0.19 0.00 98 1012.4
20181217050122 37 272 14.0 22.0 0.00 0.21 0.00 98 1012.5
20181217045122 37 310 10.0 23.0 0.00 0.22 0.21 98 1012.4
20181217044121 37 306 12.0 21.0 0.00 0.23 0.21 98 1012.4
20181217043121 37 296 10.0 24.0 0.00 0.25 0.21 98 1012.4
20181217042121 37 302 16.0 21.0 0.01 0.27 0.21 98 1012.6
20181217041121 38 273 15.0 19.0 0.01 0.28 0.21 98 1012.7
20181217040120 38 331 10.0 22.0 0.01 0.28 0.21 98 1012.7
20181217035120 38 271 16.0 18.0 0.01 0.28 0.21 98 1012.7
20181217034120 38 333 11.0 20.0 0.01 0.28 0.21 98 1012.8
20181217033120 38 291 5.0 13.0 0.01 0.28 0.21 98 1012.9
20181217032119 37 300 4.0 17.0 0.00 0.28 0.20 98 1012.8
20181217031119 37 298 10.0 19.0 0.01 0.28 0.20 98 1012.9
20181217030119 37 328 14.0 20.0 0.01 0.28 0.20 98 1012.8
20181217025118 37 321 4.0 18.0 0.01 0.28 0.20 98 1013.0
20181217024118 37 281 9.0 20.0 0.01 0.28 0.20 98 1013.1
20181217023118 38 281 13.0 19.0 0.01 0.28 0.20 98 1013.1
20181217022117 38 295 7.0 18.0 0.01 0.28 0.20 98 1013.0
20181217021117 37 297 14.0 18.0 0.00 0.27 0.19 98 1013.1
20181217020117 37 286 11.0 21.0 0.00 0.27 0.19 98 1013.1
20181217015116 37 290 11.0 21.0 0.01 0.27 0.19 98 1013.2
20181217014116 37 292 12.0 19.0 0.01 0.27 0.19 98 1013.2
20181217013116 37 300 6.0 19.0 0.01 0.27 0.19 98 1013.2
20181217012116 37 286 4.0 18.0 0.01 0.27 0.19 98 1013.2
20181217011115 37 300 14.0 21.0 0.01 0.27 0.19 98 1013.1
20181217010115 37 277 17.0 20.0 0.01 0.28 0.19 98 1013.1
20181217005115 37 263 6.0 17.0 0.00 0.27 0.18 98 1012.8
20181217004114 36 259 6.0 21.0 0.00 0.27 0.18 98 1012.8
20181217003114 36 287 14.0 18.0 0.00 0.27 0.18 98 1012.9
20181217002114 36 284 9.0 25.0 0.00 0.27 0.18 98 1012.8
20181217001114 36 253 6.0 15.0 0.00 0.27 0.18 98 1012.8
20181217000114 36 301 3.0 18.0 0.00 0.28 0.18 98 1012.8
20181216235113 36 271 11.0 21.0 0.00 0.29 0.18 98 1012.6
20181216234113 36 242 1.0 15.0 0.00 0.29 0.18 98 1012.7
20181216233113 36 337 0.0 12.0 0.00 0.29 0.18 98 1012.5
20181216232112 36 165 2.0 15.0 0.00 0.29 0.18 98 1012.5
20181216231112 36 217 9.0 16.0 0.01 0.29 0.18 98 1012.4
20181216230112 36 236 4.0 12.0 0.01 0.29 0.18 98 1012.2
20181216225111 36 270 5.0 13.0 0.01 0.29 0.18 98 1012.2
20181216224111 36 264 0.0 20.0 0.01 0.29 0.18 98 1012.0
20181216223111 36 340 5.0 21.0 0.01 0.29 0.18 98 1011.8
20181216222111 36 256 11.0 18.0 0.01 0.29 0.18 98 1011.8
20181216221110 36 267 0.0 16.0 0.00 0.28 0.17 98 1011.7
20181216220110 36 238 3.0 11.0 0.00 0.28 0.17 98 1011.4
20181216215110 36 267 5.0 14.0 0.00 0.28 0.17 98 1011.6
20181216214109 36 229 7.0 10.0 0.00 0.28 0.17 98 1011.4
20181216213109 36 273 0.0 13.0 0.00 0.28 0.17 98 1011.3
20181216212109 36 250 4.0 15.0 0.00 0.29 0.17 98 1011.2
20181216211109 37 259 0.0 13.0 0.01 0.29 0.17 98 1011.1
20181216210108 37 252 2.0 6.0 0.01 0.30 0.17 98 1010.7
20181216205108 37 228 0.0 6.0 0.01 0.30 0.17 98 1010.6
20181216204108 37 321 0.0 10.0 0.01 0.30 0.17 98 1010.6
20181216203107 37 252 1.0 10.0 0.01 0.30 0.17 98 1010.5
20181216202107 38 325 0.0 12.0 0.01 0.30 0.17 98 1010.6
20181216201107 38 273 6.0 10.0 0.00 0.29 0.16 98 1010.4
20181216200106 38 325 0.0 0.0 0.00 0.29 0.16 98 1010.3
20181216195106 38 278 0.0 0.0 0.00 0.29 0.16 98 1010.2
20181216194106 38 283 0.0 0.0 0.00 0.29 0.16 98 1010.1
20181216193106 38 319 0.0 0.0 0.00 0.29 0.16 98 1010.0
20181216192105 38 304 0.0 0.0 0.00 0.29 0.16 98 1010.0
20181216191105 38 342 0.0 0.0 0.01 0.29 0.16 98 1010.1
20181216190105 38 265 0.0 0.0 0.01 0.29 0.16 98 1010.1
20181216185104 38 340 0.0 0.0 0.01 0.29 0.16 98 1010.1
20181216184104 38 55 0.0 0.0 0.01 0.29 0.16 98 1010.0
20181216183104 38 55 0.0 0.0 0.01 0.29 0.16 98 1010.0
20181216182104 38 55 0.0 0.0 0.01 0.29 0.16 98 1010.1
20181216181104 38 76 0.0 0.0 0.00 0.28 0.15 98 1010.1